This is the latest recevied weather packets stored in our database for station/object F5NTS. If no packets are shown the sender has not sent any weather packets the latest 10 day(s).
| Time | Temp. | Humidity | Pressure | Rain* | Wind** | Luminosity | Snow |
|---|---|---|---|---|---|---|---|
| 1777722005 | 24.44° C | 59% | 1014.3 hPa | 0 mm | - | - | - |
| 1777720504 | 24.44° C | 63% | 1014.5 hPa | 0 mm | - | - | - |
| 1777719604 | 22.22° C | 64% | 1014.8 hPa | 0 mm | - | - | - |
| 1777715405 | 21.67° C | 71% | 1015.7 hPa | 0 mm | - | - | - |
| 1777714204 | 20.56° C | 71% | 1015.6 hPa | 0 mm | - | - | - |
| 1777713604 | 20.56° C | 71% | 1015.6 hPa | 0 mm | - | - | - |
| 1777713005 | 20.56° C | 72% | 1016 hPa | 0 mm | - | - | - |
| 1777709404 | 18.89° C | 77% | 1015.6 hPa | 0 mm | - | - | - |
| 1777707304 | 17.78° C | 82% | 1015.8 hPa | 0 mm | - | - | - |
| 1777705504 | 16.11° C | 87% | 1015.9 hPa | 0 mm | - | - | - |
| 1777701904 | 12.22° C | 87% | 1015.8 hPa | 0 mm | - | - | - |
| 1777698304 | 11.67° C | 85% | 1015.4 hPa | 0 mm | - | - | - |
| 1777698004 | 11.67° C | 85% | 1015.4 hPa | 0 mm | - | - | - |
| 1777697104 | 11.67° C | 85% | 1015.6 hPa | 0 mm | - | - | - |
| 1777696805 | 11.67° C | 84% | 1015.7 hPa | 0 mm | - | - | - |
| 1777696504 | 11.67° C | 84% | 1015.7 hPa | 0 mm | - | - | - |
| 1777694705 | 11.11° C | 83% | 1015.6 hPa | 0 mm | - | - | - |
| 1777693804 | 11.67° C | 83% | 1015.9 hPa | 0 mm | - | - | - |
| 1777689605 | 12.78° C | 80% | 1016.3 hPa | 0 mm | - | - | - |
| 1777688705 | 12.78° C | 79% | 1016.4 hPa | 0 mm | - | - | - |
| 1777688404 | 12.78° C | 78% | 1016.4 hPa | 0 mm | - | - | - |
| 1777688104 | 12.78° C | 78% | 1016.4 hPa | 0 mm | - | - | - |
| 1777678504 | 12.22° C | 67% | 1016.5 hPa | 0 mm | - | - | - |
| 1777676105 | 12.78° C | 63% | 1017.2 hPa | 0 mm | - | - | - |
| 1777673104 | 13.33° C | 60% | 1017.3 hPa | 0 mm | - | - | - |
* Rain latest hour (hover to see other rain measurements)
** Current wind speed in m/s (hover to see current wind gust speed)